Regional Weather Roundup
Issued by NWS

Home | Current Version | Previous Version | Text Only | Print | Product List | Glossary Off
Versions: 1 2 3 4 5 6 7 8 9 10 11 12 13 14 15 16 17 18 19 20 21 22 23 24 25 26 27 28 29 30 31 32 33 34 35 36 37 38 39 40 41 42 43 44 45 46 47 48 49 50

000
ASUS43 KFSD 280010
RWRSD

WEATHER ROUNDUP FOR SOUTH DAKOTA
NATIONAL WEATHER SERVICE SIOUX FALLS SD
600 PM CST THU NOV 27 2014

NOTE: "FAIR" INDICATES FEW OR NO CLOUDS BELOW 12,000 FEET WITH NO
SIGNIFICANT WEATHER AND/OR OBSTRUCTIONS TO VISIBILITY.


SDZ001>005-009-010-012>017-280100-
NORTHWEST AND NORTH CENTRAL SOUTH DAKOTA

CITY           SKY/WX    TMP DP  RH WIND       PRES   REMARKS
BUFFALO          N/A     28  22  78 S9        29.77F WCI  19
FAITH            N/A     26  19  74 S10       29.89F WCI  16
MOBRIDGE       CLOUDY    17  10  74 SE20      29.95F WCI   1
$$

SDZ012>016-024>037-041>051-057-063-072>074-280100-
SOUTHWEST AND SOUTH CENTRAL SOUTH DAKOTA

CITY           SKY/WX    TMP DP  RH WIND       PRES   REMARKS
RAPID CTY ARPT CLEAR     32  26  78 SE5       29.87F WCI  27
PIERRE         CLOUDY    24  16  71 SE16      29.97F WCI  11
CUSTER         CLEAR     43  24  47 CALM      29.94F
ELLSWORTH AFB  MOCLDY    33  28  81 W5        29.86F WCI  29
PHILIP         CLOUDY    32  22  66 E7        29.90F WCI  26
PINE RIDGE     CLEAR     37  29  72 CALM      29.92F
SPEARFISH      FAIR      50  27  40 W10       29.88S
WINNER         FAIR      30  18  60 SE12      29.99F WCI  20
$$

SDZ004>011-016>023-039-040-280100-
NORTHEAST SOUTH DAKOTA

CITY           SKY/WX    TMP DP  RH WIND       PRES   REMARKS
ABERDEEN       LGT SNOW  14   6  70 SE13      30.15F WCI   0
WATERTOWN      CLOUDY    11   2  67 SE14      30.16F WCI  -5
SISSETON         N/A      4  -1  80 S15       30.22F WCI -14
$$

SDZ017-020-022-023-036>040-048>070-280100-
SOUTHEAST SOUTH DAKOTA

CITY           SKY/WX    TMP DP  RH WIND       PRES   REMARKS
SIOUX FALLS    CLOUDY    12   3  67 SE13      30.22F WCI  -3
HURON          CLOUDY    14   5  67 SE15G28   30.14F WCI  -1
CHAMBERLAIN    CLOUDY    24  15  68 SE17G23   30.04F WCI  10
MITCHELL       CLOUDY    16   9  74 SE16      30.16F WCI   1
YANKTON        CLOUDY    18   9  68 SE15G23   30.19F WCI   3
$$

ABBREVIATIONS USED IN REMARKS
   TC - TEMPERATURE IN CELSIUS
  WCI - WIND CHILL INDEX
   HX - HEAT INDEX
  VSB - VISIBILITY




USA.gov is the U.S. government's official web portal to all federal, state and local government web resources and services.